Location: Bu�n Treun
(12.1333°N, 108.3167°E)
Time: 23:54:15
(UTC+00:00)

ARIANE 5 R/B - Pass Details

Date: 13 July 2020
Orbit: 282 x 33425 km, 1.6° (Epoch: 14 August)

Event Time Altitude Azimuth Distance (km) Brightness Sun altitude
Exits shadow 21:50:53 - 210° (SSW) 1,463 3.5 -9.5°
Reaches altitude 10° 21:51:02 10° 207° (SSW) 1,429 3.5 -9.4°
Maximum altitude 21:53:08 18° 157° (SSE) 1,456 4.0 -9.0°
Drops below altitude 10° 21:57:32 10° 113° (ESE) 3,237 6.4 -8.0°
Sets 22:05:16 0° 100° (E) 6,795 8.4 -6.3°
